Location: Ferchesar
(52.6477°N, 12.4298°E)
Time: 09:16:38
(UTC+01:00)

S-56A Canister/Altair - Pass Details

Date: 13 December 2021
Orbit: 633 x 2499 km, 38.9° (Epoch: 19 January)

Event Time Altitude Azimuth Distance (km) Brightness Sun altitude
Rises 01:24:43 0° 266° (W) 5,313 - -56.8°
Reaches altitude 10° 01:29:19 10° 256° (WSW) 3,981 - -56.4°
Maximum altitude 01:36:49 25° 207° (SSW) 2,410 - -55.6°
Drops below altitude 10° 01:42:25 10° 155° (SSE) 2,880 - -55.1°
Sets 01:45:10 0° 141° (SE) 3,600 - -54.8°
